Time,TemperatureF,DewpointF,PressureIn,WindDirection,WindDirectionDegrees,WindSpeedMPH,WindSpeedGustMPH,Humidity,HourlyPrecipIn,Conditions,Clouds,dailyrainin,SoftwareType,DateUTC
2013-05-11 00:01:00,72.5,51.6,30.10,West,269,0.0,6.0,48,0.00,,,0.00,Weather View 32 v70,2013-05-11 07:01:00,
2013-05-11 00:06:00,72.0,52.3,30.10,West,269,0.0,6.0,50,0.00,,,0.00,Weather View 32 v70,2013-05-11 07:06:00,
2013-05-11 00:11:00,71.3,52.2,30.10,West,269,0.0,6.0,51,0.00,,,0.00,Weather View 32 v70,2013-05-11 07:11:00,
2013-05-11 00:16:00,70.4,51.9,30.10,West,269,0.0,6.0,52,0.00,,,0.00,Weather View 32 v70,2013-05-11 07:16:00,
2013-05-11 00:21:00,70.1,52.6,30.10,West,269,0.0,6.0,54,0.00,,,0.00,Weather View 32 v70,2013-05-11 07:21:00,
2013-05-11 00:26:00,70.3,52.8,30.10,West,269,0.0,6.0,54,0.00,,,0.00,Weather View 32 v70,2013-05-11 07:26:00,
2013-05-11 00:31:00,70.3,52.8,30.10,West,269,0.0,6.0,54,0.00,,,0.00,Weather View 32 v70,2013-05-11 07:31:00,
2013-05-11 00:36:00,70.1,52.6,30.10,West,269,0.0,6.0,54,0.00,,,0.00,Weather View 32 v70,2013-05-11 07:36:00,
2013-05-11 00:41:00,69.9,52.4,30.11,West,269,0.0,6.0,54,0.00,,,0.00,Weather View 32 v70,2013-05-11 07:41:00,
2013-05-11 00:46:00,70.3,52.8,30.11,WSW,254,0.0,9.0,54,0.00,,,0.00,Weather View 32 v70,2013-05-11 07:46:00,
2013-05-11 00:51:00,70.1,52.6,30.11,WSW,254,0.0,9.0,54,0.00,,,0.00,Weather View 32 v70,2013-05-11 07:51:00,
2013-05-11 00:55:00,70.4,52.9,30.11,West,269,2.0,9.0,54,0.00,,,0.00,Weather View 32 v70,2013-05-11 07:55:00,
2013-05-11 01:00:00,71.1,52.5,30.11,West,267,4.0,12.0,52,0.00,,,0.00,Weather View 32 v70,2013-05-11 08:00:00,
2013-05-11 01:05:00,71.5,52.4,30.11,WNW,287,3.0,12.0,51,0.00,,,0.00,Weather View 32 v70,2013-05-11 08:05:00,
2013-05-11 01:10:00,71.5,52.4,30.11,West,265,2.0,12.0,51,0.00,,,0.00,Weather View 32 v70,2013-05-11 08:10:00,
2013-05-11 01:15:00,71.6,51.9,30.11,West,268,10.0,12.0,50,0.00,,,0.00,Weather View 32 v70,2013-05-11 08:15:00,
2013-05-11 01:20:00,71.6,51.9,30.11,West,267,4.0,13.0,50,0.00,,,0.00,Weather View 32 v70,2013-05-11 08:20:00,
2013-05-11 01:25:00,71.6,51.9,30.11,West,275,5.0,13.0,50,0.00,,,0.00,Weather View 32 v70,2013-05-11 08:25:00,
2013-05-11 01:30:00,71.5,51.8,30.11,WNW,283,5.0,13.0,50,0.00,,,0.00,Weather View 32 v70,2013-05-11 08:30:00,
2013-05-11 01:35:00,70.9,51.8,30.11,WNW,290,0.0,13.0,51,0.00,,,0.00,Weather View 32 v70,2013-05-11 08:35:00,
2013-05-11 01:40:00,70.4,51.4,30.11,West,277,3.0,13.0,51,0.00,,,0.00,Weather View 32 v70,2013-05-11 08:40:00,
2013-05-11 01:45:00,70.4,51.4,30.11,West,259,6.0,13.0,51,0.00,,,0.00,Weather View 32 v70,2013-05-11 08:45:00,
2013-05-11 01:50:00,70.4,51.4,30.11,WNW,290,7.0,14.0,51,0.00,,,0.00,Weather View 32 v70,2013-05-11 08:50:00,
2013-05-11 01:55:00,70.3,51.3,30.11,WNW,284,4.0,14.0,51,0.00,,,0.00,Weather View 32 v70,2013-05-11 08:55:00,
2013-05-11 02:00:00,70.1,51.1,30.11,West,281,8.0,14.0,51,0.00,,,0.00,Weather View 32 v70,2013-05-11 09:00:00,
2013-05-11 02:05:00,69.9,50.9,30.11,WSW,240,1.0,14.0,51,0.00,,,0.00,Weather View 32 v70,2013-05-11 09:05:00,
2013-05-11 02:10:00,69.6,51.1,30.11,WNW,289,6.0,14.0,52,0.00,,,0.00,Weather View 32 v70,2013-05-11 09:10:00,
2013-05-11 02:15:00,69.4,51.0,30.11,WNW,284,3.0,14.0,52,0.00,,,0.00,Weather View 32 v70,2013-05-11 09:15:00,
2013-05-11 02:20:00,69.1,51.2,30.11,WNW,288,2.0,14.0,53,0.00,,,0.00,Weather View 32 v70,2013-05-11 09:20:00,
2013-05-11 02:25:00,68.4,51.1,30.11,WNW,303,5.0,14.0,54,0.00,,,0.00,Weather View 32 v70,2013-05-11 09:25:00,
2013-05-11 02:30:00,68.1,51.3,30.11,NW,310,3.0,14.0,55,0.00,,,0.00,Weather View 32 v70,2013-05-11 09:30:00,
2013-05-11 02:35:00,67.9,51.6,30.11,NW,310,2.0,14.0,56,0.00,,,0.00,Weather View 32 v70,2013-05-11 09:35:00,
2013-05-11 02:40:00,67.6,51.3,30.11,NW,310,1.0,14.0,56,0.00,,,0.00,Weather View 32 v70,2013-05-11 09:40:00,
2013-05-11 02:45:00,67.6,51.3,30.11,NW,310,2.0,14.0,56,0.00,,,0.00,Weather View 32 v70,2013-05-11 09:45:00,
2013-05-11 02:50:00,67.9,51.1,30.11,NW,309,1.0,11.0,55,0.00,,,0.00,Weather View 32 v70,2013-05-11 09:50:00,
2013-05-11 02:55:00,68.1,51.3,30.11,NW,309,2.0,11.0,55,0.00,,,0.00,Weather View 32 v70,2013-05-11 09:55:00,
2013-05-11 03:00:00,68.1,51.3,30.10,West,275,3.0,8.0,55,0.00,,,0.00,Weather View 32 v70,2013-05-11 10:00:00,
2013-05-11 03:05:00,67.9,51.6,30.10,West,278,4.0,8.0,56,0.00,,,0.00,Weather View 32 v70,2013-05-11 10:05:00,
2013-05-11 03:10:00,67.8,51.5,30.10,WNW,294,1.0,8.0,56,0.00,,,0.00,Weather View 32 v70,2013-05-11 10:10:00,
2013-05-11 03:15:00,67.6,51.3,30.10,WNW,290,2.0,8.0,56,0.00,,,0.00,Weather View 32 v70,2013-05-11 10:15:00,
2013-05-11 03:20:00,67.6,51.3,30.10,WNW,290,1.0,7.0,56,0.00,,,0.00,Weather View 32 v70,2013-05-11 10:20:00,
2013-05-11 03:25:00,67.6,51.3,30.10,WNW,291,3.0,7.0,56,0.00,,,0.00,Weather View 32 v70,2013-05-11 10:25:00,
2013-05-11 03:30:00,67.4,51.1,30.10,WNW,294,2.0,7.0,56,0.00,,,0.00,Weather View 32 v70,2013-05-11 10:30:00,
2013-05-11 03:35:00,67.3,51.0,30.11,WNW,294,0.0,7.0,56,0.00,,,0.00,Weather View 32 v70,2013-05-11 10:35:00,
2013-05-11 03:40:00,66.8,50.6,30.10,WNW,294,0.0,7.0,56,0.00,,,0.00,Weather View 32 v70,2013-05-11 10:40:00,
2013-05-11 03:45:00,66.3,51.0,30.11,WNW,294,0.0,7.0,58,0.00,,,0.00,Weather View 32 v70,2013-05-11 10:45:00,
2013-05-11 03:50:00,65.8,51.0,30.10,WNW,290,2.0,7.0,59,0.00,,,0.00,Weather View 32 v70,2013-05-11 10:50:00,
2013-05-11 03:55:00,65.8,50.6,30.10,WNW,284,5.0,8.0,58,0.00,,,0.00,Weather View 32 v70,2013-05-11 10:55:00,
2013-05-11 04:00:00,66.3,51.0,30.10,WNW,284,4.0,8.0,58,0.00,,,0.00,Weather View 32 v70,2013-05-11 11:00:00,
2013-05-11 04:05:00,66.3,51.0,30.10,WNW,287,2.0,8.0,58,0.00,,,0.00,Weather View 32 v70,2013-05-11 11:05:00,
2013-05-11 04:10:00,65.6,50.8,30.10,WNW,287,1.0,8.0,59,0.00,,,0.00,Weather View 32 v70,2013-05-11 11:10:00,
2013-05-11 04:15:00,65.0,50.7,30.10,WNW,290,4.0,8.0,60,0.00,,,0.00,Weather View 32 v70,2013-05-11 11:15:00,
2013-05-11 04:20:00,64.3,51.0,30.10,WNW,293,4.0,8.0,62,0.00,,,0.00,Weather View 32 v70,2013-05-11 11:20:00,
2013-05-11 04:25:00,63.7,50.8,30.10,WNW,295,5.0,8.0,63,0.00,,,0.00,Weather View 32 v70,2013-05-11 11:25:00,
2013-05-11 04:30:00,63.5,51.1,30.10,WNW,297,2.0,8.0,64,0.00,,,0.00,Weather View 32 v70,2013-05-11 11:30:00,
2013-05-11 04:35:00,63.5,51.1,30.10,WNW,297,0.0,8.0,64,0.00,,,0.00,Weather View 32 v70,2013-05-11 11:35:00,
2013-05-11 04:40:00,63.5,51.1,30.09,WNW,297,1.0,8.0,64,0.00,,,0.00,Weather View 32 v70,2013-05-11 11:40:00,
2013-05-11 04:45:00,63.7,51.3,30.09,WNW,297,3.0,8.0,64,0.00,,,0.00,Weather View 32 v70,2013-05-11 11:45:00,
2013-05-11 04:50:00,63.7,51.3,30.09,WNW,294,2.0,8.0,64,0.00,,,0.00,Weather View 32 v70,2013-05-11 11:50:00,
2013-05-11 04:55:00,63.7,51.3,30.09,WNW,295,3.0,7.0,64,0.00,,,0.00,Weather View 32 v70,2013-05-11 11:55:00,
2013-05-11 05:00:00,64.0,51.1,30.09,WNW,290,3.0,7.0,63,0.00,,,0.00,Weather View 32 v70,2013-05-11 12:00:00,
2013-05-11 05:05:00,64.5,51.2,30.09,WNW,285,0.0,7.0,62,0.00,,,0.00,Weather View 32 v70,2013-05-11 12:05:00,
2013-05-11 05:10:00,64.7,51.3,30.09,WNW,285,1.0,7.0,62,0.00,,,0.00,Weather View 32 v70,2013-05-11 12:10:00,
2013-05-11 05:15:00,65.0,51.2,30.09,WNW,286,1.0,7.0,61,0.00,,,0.00,Weather View 32 v70,2013-05-11 12:15:00,
2013-05-11 05:20:00,65.2,51.4,30.09,WNW,286,0.0,7.0,61,0.00,,,0.00,Weather View 32 v70,2013-05-11 12:20:00,
2013-05-11 05:25:00,65.3,51.0,30.09,WNW,286,2.0,7.0,60,0.00,,,0.00,Weather View 32 v70,2013-05-11 12:25:00,
2013-05-11 05:30:00,65.6,51.3,30.10,West,278,2.0,7.0,60,0.00,,,0.00,Weather View 32 v70,2013-05-11 12:30:00,
2013-05-11 05:35:00,65.6,50.8,30.10,WNW,294,4.0,9.0,59,0.00,,,0.00,Weather View 32 v70,2013-05-11 12:35:00,
2013-05-11 05:40:00,65.8,51.0,30.10,West,276,1.0,9.0,59,0.00,,,0.00,Weather View 32 v70,2013-05-11 12:40:00,
2013-05-11 05:45:00,65.8,50.6,30.10,WNW,296,3.0,10.0,58,0.00,,,0.00,Weather View 32 v70,2013-05-11 12:45:00,
2013-05-11 05:50:00,65.8,50.6,30.10,West,277,2.0,10.0,58,0.00,,,0.00,Weather View 32 v70,2013-05-11 12:50:00,
2013-05-11 05:55:00,65.6,50.4,30.09,WNW,283,4.0,10.0,58,0.00,,,0.00,Weather View 32 v70,2013-05-11 12:55:00,
2013-05-11 06:00:00,65.5,50.8,30.09,WNW,284,2.0,10.0,59,0.00,,,0.00,Weather View 32 v70,2013-05-11 13:00:00,
2013-05-11 06:05:00,65.2,50.9,30.09,WNW,293,5.0,10.0,60,0.00,,,0.00,Weather View 32 v70,2013-05-11 13:05:00,
2013-05-11 06:10:00,64.8,51.0,30.10,WNW,292,3.0,10.0,61,0.00,,,0.00,Weather View 32 v70,2013-05-11 13:10:00,
2013-05-11 06:15:00,64.5,50.7,30.10,West,279,4.0,10.0,61,0.00,,,0.00,Weather View 32 v70,2013-05-11 13:15:00,
2013-05-11 06:20:00,64.3,51.0,30.09,WNW,283,5.0,10.0,62,0.00,,,0.00,Weather View 32 v70,2013-05-11 13:20:00,
2013-05-11 06:25:00,64.2,50.9,30.09,WNW,288,1.0,10.0,62,0.00,,,0.00,Weather View 32 v70,2013-05-11 13:25:00,
2013-05-11 06:30:00,63.9,51.0,30.09,West,280,3.0,10.0,63,0.00,,,0.00,Weather View 32 v70,2013-05-11 13:30:00,
2013-05-11 06:35:00,63.2,50.8,30.09,West,281,1.0,10.0,64,0.00,,,0.00,Weather View 32 v70,2013-05-11 13:35:00,
2013-05-11 06:40:00,62.9,50.9,30.09,West,267,7.0,11.0,65,0.00,,,0.00,Weather View 32 v70,2013-05-11 13:40:00,
2013-05-11 06:45:00,62.9,50.9,30.09,West,270,3.0,11.0,65,0.00,,,0.00,Weather View 32 v70,2013-05-11 13:45:00,
2013-05-11 06:50:00,62.9,50.9,30.10,West,280,5.0,11.0,65,0.00,,,0.00,Weather View 32 v70,2013-05-11 13:50:00,
2013-05-11 06:55:00,62.9,50.9,30.10,West,274,2.0,11.0,65,0.00,,,0.00,Weather View 32 v70,2013-05-11 13:55:00,
2013-05-11 07:00:00,62.9,50.9,30.10,West,274,5.0,11.0,65,0.00,,,0.00,Weather View 32 v70,2013-05-11 14:00:00,
2013-05-11 07:05:00,62.7,51.1,30.10,WNW,287,2.0,13.0,66,0.00,,,0.00,Weather View 32 v70,2013-05-11 14:05:00,
2013-05-11 07:10:00,62.9,51.3,30.10,WNW,296,6.0,13.0,66,0.00,,,0.00,Weather View 32 v70,2013-05-11 14:10:00,
2013-05-11 07:15:00,63.1,51.1,30.09,NW,306,5.0,13.0,65,0.00,,,0.00,Weather View 32 v70,2013-05-11 14:15:00,
2013-05-11 07:20:00,63.2,51.2,30.09,West,261,4.0,13.0,65,0.00,,,0.00,Weather View 32 v70,2013-05-11 14:20:00,
2013-05-11 07:25:00,63.4,51.4,30.09,NW,313,6.0,13.0,65,0.00,,,0.00,Weather View 32 v70,2013-05-11 14:25:00,
2013-05-11 07:30:00,63.7,51.7,30.09,WNW,286,2.0,13.0,65,0.00,,,0.00,Weather View 32 v70,2013-05-11 14:30:00,
2013-05-11 07:35:00,63.9,51.5,30.09,WNW,283,0.0,13.0,64,0.00,,,0.00,Weather View 32 v70,2013-05-11 14:35:00,
2013-05-11 07:40:00,64.0,51.5,30.09,WNW,283,1.0,13.0,64,0.00,,,0.00,Weather View 32 v70,2013-05-11 14:40:00,
2013-05-11 07:45:00,64.0,52.0,30.09,WNW,300,2.0,13.0,65,0.00,,,0.00,Weather View 32 v70,2013-05-11 14:45:00,
2013-05-11 07:50:00,64.0,52.0,30.09,WNW,291,2.0,13.0,65,0.00,,,0.00,Weather View 32 v70,2013-05-11 14:50:00,
2013-05-11 07:55:00,64.2,52.2,30.09,WNW,290,3.0,13.0,65,0.00,,,0.00,Weather View 32 v70,2013-05-11 14:55:00,
2013-05-11 08:00:00,64.2,52.2,30.09,WNW,290,3.0,13.0,65,0.00,,,0.00,Weather View 32 v70,2013-05-11 15:00:00,
2013-05-11 08:05:00,64.3,52.3,30.09,WNW,288,4.0,12.0,65,0.00,,,0.00,Weather View 32 v70,2013-05-11 15:05:00,
2013-05-11 08:10:00,64.0,52.0,30.09,West,274,3.0,12.0,65,0.00,,,0.00,Weather View 32 v70,2013-05-11 15:10:00,
2013-05-11 08:15:00,63.5,51.9,30.09,WNW,296,10.0,12.0,66,0.00,,,0.00,Weather View 32 v70,2013-05-11 15:15:00,
2013-05-11 08:20:00,63.4,51.8,30.10,WNW,300,8.0,13.0,66,0.00,,,0.00,Weather View 32 v70,2013-05-11 15:20:00,
2013-05-11 08:25:00,63.4,51.8,30.10,WNW,294,6.0,14.0,66,0.00,,,0.00,Weather View 32 v70,2013-05-11 15:25:00,
2013-05-11 08:30:00,63.7,52.1,30.10,WNW,284,5.0,14.0,66,0.00,,,0.00,Weather View 32 v70,2013-05-11 15:30:00,
2013-05-11 08:35:00,64.2,52.6,30.10,WNW,300,3.0,14.0,66,0.00,,,0.00,Weather View 32 v70,2013-05-11 15:35:00,
2013-05-11 08:40:00,64.8,52.7,30.10,West,277,4.0,15.0,65,0.00,,,0.00,Weather View 32 v70,2013-05-11 15:40:00,
2013-05-11 08:45:00,65.3,52.8,30.10,West,273,5.0,15.0,64,0.00,,,0.00,Weather View 32 v70,2013-05-11 15:45:00,
2013-05-11 08:50:00,66.0,52.6,30.10,West,279,4.0,15.0,62,0.00,,,0.00,Weather View 32 v70,2013-05-11 15:50:00,
2013-05-11 08:55:00,66.3,52.9,30.10,NW,312,10.0,15.0,62,0.00,,,0.00,Weather View 32 v70,2013-05-11 15:55:00,
2013-05-11 09:00:00,66.6,53.1,30.10,WSW,237,6.0,15.0,62,0.00,,,0.00,Weather View 32 v70,2013-05-11 16:00:00,
2013-05-11 09:05:00,66.9,53.0,30.10,WNW,297,5.0,15.0,61,0.00,,,0.00,Weather View 32 v70,2013-05-11 16:05:00,
2013-05-11 09:10:00,66.8,52.9,30.09,NW,318,6.0,15.0,61,0.00,,,0.00,Weather View 32 v70,2013-05-11 16:10:00,
2013-05-11 09:15:00,66.9,53.4,30.09,NW,306,6.0,15.0,62,0.00,,,0.00,Weather View 32 v70,2013-05-11 16:15:00,
2013-05-11 09:20:00,67.6,53.6,30.09,WNW,294,7.0,15.0,61,0.00,,,0.00,Weather View 32 v70,2013-05-11 16:20:00,
2013-05-11 09:25:00,67.8,53.4,30.09,NW,305,3.0,15.0,60,0.00,,,0.00,Weather View 32 v70,2013-05-11 16:25:00,
2013-05-11 09:30:00,68.1,53.2,30.09,NW,305,2.0,15.0,59,0.00,,,0.00,Weather View 32 v70,2013-05-11 16:30:00,
2013-05-11 09:35:00,68.6,53.7,30.09,NW,305,1.0,15.0,59,0.00,,,0.00,Weather View 32 v70,2013-05-11 16:35:00,
2013-05-11 09:40:00,69.3,53.8,30.08,NW,306,4.0,13.0,58,0.00,,,0.00,Weather View 32 v70,2013-05-11 16:40:00,
2013-05-11 09:45:00,69.6,53.6,30.08,NW,304,3.0,13.0,57,0.00,,,0.00,Weather View 32 v70,2013-05-11 16:45:00,
2013-05-11 09:50:00,69.8,54.3,30.07,NW,304,1.0,13.0,58,0.00,,,0.00,Weather View 32 v70,2013-05-11 16:50:00,
2013-05-11 09:55:00,70.4,53.9,30.07,NW,306,3.0,13.0,56,0.00,,,0.00,Weather View 32 v70,2013-05-11 16:55:00,
2013-05-11 10:00:00,70.9,53.4,30.07,NW,306,1.0,13.0,54,0.00,,,0.00,Weather View 32 v70,2013-05-11 17:00:00,
2013-05-11 10:05:00,70.9,53.4,30.07,NW,306,5.0,13.0,54,0.00,,,0.00,Weather View 32 v70,2013-05-11 17:05:00,
2013-05-11 10:10:00,70.8,53.3,30.06,WNW,301,4.0,13.0,54,0.00,,,0.00,Weather View 32 v70,2013-05-11 17:10:00,
2013-05-11 10:15:00,70.4,52.9,30.06,NW,315,4.0,9.0,54,0.00,,,0.00,Weather View 32 v70,2013-05-11 17:15:00,
2013-05-11 10:20:00,70.9,52.9,30.06,NW,306,3.0,9.0,53,0.00,,,0.00,Weather View 32 v70,2013-05-11 17:20:00,
2013-05-11 10:25:00,71.5,52.9,30.06,WNW,288,4.0,10.0,52,0.00,,,0.00,Weather View 32 v70,2013-05-11 17:25:00,
2013-05-11 10:30:00,72.1,53.5,30.06,NW,304,4.0,10.0,52,0.00,,,0.00,Weather View 32 v70,2013-05-11 17:30:00,
2013-05-11 10:35:00,72.7,52.9,30.06,NW,311,4.0,10.0,50,0.00,,,0.00,Weather View 32 v70,2013-05-11 17:35:00,
2013-05-11 10:40:00,73.0,52.7,30.06,WNW,300,4.0,10.0,49,0.00,,,0.00,Weather View 32 v70,2013-05-11 17:40:00,
2013-05-11 10:45:00,73.2,52.3,30.06,WNW,290,4.0,10.0,48,0.00,,,0.00,Weather View 32 v70,2013-05-11 17:45:00,
2013-05-11 10:50:00,73.9,52.3,30.05,WNW,303,1.0,10.0,47,0.00,,,0.00,Weather View 32 v70,2013-05-11 17:50:00,
2013-05-11 10:55:00,74.2,53.2,30.05,WNW,302,2.0,10.0,48,0.00,,,0.00,Weather View 32 v70,2013-05-11 17:55:00,
2013-05-11 11:00:00,74.4,53.4,30.05,WNW,288,4.0,10.0,48,0.00,,,0.00,Weather View 32 v70,2013-05-11 18:00:00,
2013-05-11 11:05:00,74.6,52.4,30.05,NW,309,7.0,10.0,46,0.00,,,0.00,Weather View 32 v70,2013-05-11 18:05:00,
2013-05-11 11:10:00,74.0,51.8,30.05,WNW,295,4.0,10.0,46,0.00,,,0.00,Weather View 32 v70,2013-05-11 18:10:00,
2013-05-11 11:15:00,74.2,52.6,30.04,WNW,288,3.0,10.0,47,0.00,,,0.00,Weather View 32 v70,2013-05-11 18:15:00,
2013-05-11 11:20:00,75.1,52.8,30.04,NW,309,6.0,10.0,46,0.00,,,0.00,Weather View 32 v70,2013-05-11 18:20:00,
2013-05-11 11:25:00,75.8,52.9,30.04,NW,309,4.0,10.0,45,0.00,,,0.00,Weather View 32 v70,2013-05-11 18:25:00,
2013-05-11 11:30:00,76.3,52.7,30.04,NW,321,3.0,9.0,44,0.00,,,0.00,Weather View 32 v70,2013-05-11 18:30:00,
2013-05-11 11:35:00,76.8,53.2,30.04,WNW,302,3.0,9.0,44,0.00,,,0.00,Weather View 32 v70,2013-05-11 18:35:00,
2013-05-11 11:40:00,77.6,52.6,30.04,NW,306,7.0,10.0,42,0.00,,,0.00,Weather View 32 v70,2013-05-11 18:40:00,
2013-05-11 11:45:00,77.9,52.9,30.04,WNW,302,6.0,10.0,42,0.00,,,0.00,Weather View 32 v70,2013-05-11 18:45:00,
2013-05-11 11:50:00,78.5,54.7,30.03,NW,312,5.0,10.0,44,0.00,,,0.00,Weather View 32 v70,2013-05-11 18:50:00,
2013-05-11 11:55:00,79.4,53.6,30.03,WNW,289,2.0,10.0,41,0.00,,,0.00,Weather View 32 v70,2013-05-11 18:55:00,
2013-05-11 12:00:00,80.3,52.3,30.03,West,259,3.0,10.0,38,0.00,,,0.00,Weather View 32 v70,2013-05-11 19:00:00,
2013-05-11 12:05:00,81.2,51.6,30.03,WNW,284,3.0,10.0,36,0.00,,,0.00,Weather View 32 v70,2013-05-11 19:05:00,
2013-05-11 12:10:00,81.6,52.0,30.03,West,270,3.0,10.0,36,0.00,,,0.00,Weather View 32 v70,2013-05-11 19:10:00,
2013-05-11 12:15:00,81.4,51.0,30.03,WSW,246,3.0,10.0,35,0.00,,,0.00,Weather View 32 v70,2013-05-11 19:15:00,
2013-05-11 12:20:00,81.6,52.0,30.03,West,279,3.0,10.0,36,0.00,,,0.00,Weather View 32 v70,2013-05-11 19:20:00,
2013-05-11 12:25:00,81.4,51.8,30.02,West,273,2.0,11.0,36,0.00,,,0.00,Weather View 32 v70,2013-05-11 19:25:00,
2013-05-11 12:30:00,82.0,52.3,30.02,West,279,7.0,11.0,36,0.00,,,0.00,Weather View 32 v70,2013-05-11 19:30:00,
2013-05-11 12:35:00,81.4,54.0,30.02,WNW,300,8.0,11.0,39,0.00,,,0.00,Weather View 32 v70,2013-05-11 19:35:00,
2013-05-11 12:40:00,80.5,53.9,30.02,NW,306,4.0,11.0,40,0.00,,,0.00,Weather View 32 v70,2013-05-11 19:40:00,
2013-05-11 12:45:00,80.3,55.0,30.02,WNW,294,4.0,11.0,42,0.00,,,0.00,Weather View 32 v70,2013-05-11 19:45:00,
2013-05-11 12:50:00,80.5,52.5,30.01,WNW,302,5.0,12.0,38,0.00,,,0.00,Weather View 32 v70,2013-05-11 19:50:00,
2013-05-11 12:55:00,80.3,54.4,30.01,WSW,257,3.0,12.0,41,0.00,,,0.00,Weather View 32 v70,2013-05-11 19:55:00,
2013-05-11 13:00:00,80.5,53.2,30.01,NW,311,2.0,12.0,39,0.00,,,0.00,Weather View 32 v70,2013-05-11 20:00:00,
2013-05-11 13:05:00,80.9,53.5,30.01,NW,315,6.0,12.0,39,0.00,,,0.00,Weather View 32 v70,2013-05-11 20:05:00,
2013-05-11 13:10:00,81.1,53.7,30.01,West,275,2.0,12.0,39,0.00,,,0.00,Weather View 32 v70,2013-05-11 20:10:00,
2013-05-11 13:15:00,81.8,53.6,30.01,WNW,294,3.0,12.0,38,0.00,,,0.00,Weather View 32 v70,2013-05-11 20:15:00,
2013-05-11 13:20:00,82.4,51.9,30.00,WNW,284,5.0,12.0,35,0.00,,,0.00,Weather View 32 v70,2013-05-11 20:20:00,
2013-05-11 13:25:00,82.0,52.3,30.00,WNW,294,7.0,12.0,36,0.00,,,0.00,Weather View 32 v70,2013-05-11 20:25:00,
2013-05-11 13:30:00,80.5,52.5,30.00,WNW,303,5.0,12.0,38,0.00,,,0.00,Weather View 32 v70,2013-05-11 20:30:00,
2013-05-11 13:35:00,80.3,53.0,30.00,West,276,4.0,12.0,39,0.00,,,0.00,Weather View 32 v70,2013-05-11 20:35:00,
2013-05-11 13:40:00,80.9,53.5,30.00,WNW,302,4.0,12.0,39,0.00,,,0.00,Weather View 32 v70,2013-05-11 20:40:00,
2013-05-11 13:45:00,80.9,53.5,29.99,WNW,298,5.0,12.0,39,0.00,,,0.00,Weather View 32 v70,2013-05-11 20:45:00,
2013-05-11 13:50:00,80.7,52.7,29.99,WNW,292,5.0,11.0,38,0.00,,,0.00,Weather View 32 v70,2013-05-11 20:50:00,
2013-05-11 13:54:00,80.9,53.5,29.99,WNW,294,4.0,11.0,39,0.00,,,0.00,Weather View 32 v70,2013-05-11 20:54:00,
2013-05-11 13:59:00,81.8,54.3,29.99,WNW,288,2.0,11.0,39,0.00,,,0.00,Weather View 32 v70,2013-05-11 20:59:00,
2013-05-11 14:04:00,83.0,54.0,29.99,NW,309,5.0,11.0,37,0.00,,,0.00,Weather View 32 v70,2013-05-11 21:04:00,
2013-05-11 14:09:00,83.4,53.6,29.99,WNW,302,5.0,11.0,36,0.00,,,0.00,Weather View 32 v70,2013-05-11 21:09:00,
2013-05-11 14:14:00,83.0,54.0,29.98,NW,319,1.0,11.0,37,0.00,,,0.00,Weather View 32 v70,2013-05-11 21:14:00,
2013-05-11 14:19:00,83.2,54.1,29.98,WNW,302,4.0,11.0,37,0.00,,,0.00,Weather View 32 v70,2013-05-11 21:19:00,
2013-05-11 14:24:00,83.6,54.5,29.98,West,271,3.0,11.0,37,0.00,,,0.00,Weather View 32 v70,2013-05-11 21:24:00,
2013-05-11 14:29:00,83.0,54.0,29.98,WNW,291,3.0,11.0,37,0.00,,,0.00,Weather View 32 v70,2013-05-11 21:29:00,
2013-05-11 14:34:00,83.2,54.1,29.98,NW,311,3.0,11.0,37,0.00,,,0.00,Weather View 32 v70,2013-05-11 21:34:00,
2013-05-11 14:39:00,83.8,53.1,29.98,NW,312,4.0,11.0,35,0.00,,,0.00,Weather View 32 v70,2013-05-11 21:39:00,
2013-05-11 14:44:00,84.5,53.7,29.97,West,281,5.0,11.0,35,0.00,,,0.00,Weather View 32 v70,2013-05-11 21:44:00,
2013-05-11 14:49:00,84.9,52.5,29.97,West,263,5.0,11.0,33,0.00,,,0.00,Weather View 32 v70,2013-05-11 21:49:00,
2013-05-11 14:54:00,85.5,54.6,29.97,NW,304,10.0,11.0,35,0.00,,,0.00,Weather View 32 v70,2013-05-11 21:54:00,
2013-05-11 14:59:00,85.7,53.2,29.97,WNW,299,7.0,11.0,33,0.00,,,0.00,Weather View 32 v70,2013-05-11 21:59:00,
2013-05-11 15:04:00,85.5,53.0,29.97,NW,309,4.0,11.0,33,0.00,,,0.00,Weather View 32 v70,2013-05-11 22:04:00,
2013-05-11 15:09:00,84.3,52.8,29.97,WNW,295,3.0,11.0,34,0.00,,,0.00,Weather View 32 v70,2013-05-11 22:09:00,
2013-05-11 15:14:00,83.8,54.7,29.96,NW,321,3.0,11.0,37,0.00,,,0.00,Weather View 32 v70,2013-05-11 22:14:00,
2013-05-11 15:19:00,84.1,53.4,29.96,WNW,300,6.0,11.0,35,0.00,,,0.00,Weather View 32 v70,2013-05-11 22:19:00,
2013-05-11 15:24:00,84.5,53.0,29.96,WNW,293,4.0,13.0,34,0.00,,,0.00,Weather View 32 v70,2013-05-11 22:24:00,
2013-05-11 15:29:00,84.7,53.1,29.96,NW,312,11.0,13.0,34,0.00,,,0.00,Weather View 32 v70,2013-05-11 22:29:00,
2013-05-11 15:34:00,84.3,51.1,29.96,WNW,284,4.0,13.0,32,0.00,,,0.00,Weather View 32 v70,2013-05-11 22:34:00,
2013-05-11 15:39:00,84.1,51.0,29.96,West,272,3.0,14.0,32,0.00,,,0.00,Weather View 32 v70,2013-05-11 22:39:00,
2013-05-11 15:44:00,84.1,51.0,29.95,West,259,7.0,14.0,32,0.00,,,0.00,Weather View 32 v70,2013-05-11 22:44:00,
2013-05-11 15:49:00,84.3,52.8,29.95,WNW,300,6.0,14.0,34,0.00,,,0.00,Weather View 32 v70,2013-05-11 22:49:00,
2013-05-11 15:54:00,84.1,51.8,29.95,West,266,7.0,14.0,33,0.00,,,0.00,Weather View 32 v70,2013-05-11 22:54:00,
2013-05-11 15:59:00,84.0,52.5,29.95,WNW,286,4.0,14.0,34,0.00,,,0.00,Weather View 32 v70,2013-05-11 22:59:00,
2013-05-11 16:04:00,84.1,52.6,29.95,NW,307,9.0,14.0,34,0.00,,,0.00,Weather View 32 v70,2013-05-11 23:04:00,
2013-05-11 16:09:00,84.3,52.0,29.94,West,275,5.0,14.0,33,0.00,,,0.00,Weather View 32 v70,2013-05-11 23:09:00,
2013-05-11 16:14:00,84.3,52.0,29.95,WSW,252,8.0,14.0,33,0.00,,,0.00,Weather View 32 v70,2013-05-11 23:14:00,
2013-05-11 16:19:00,84.5,53.0,29.95,WNW,292,5.0,14.0,34,0.00,,,0.00,Weather View 32 v70,2013-05-11 23:19:00,
2013-05-11 16:24:00,84.9,52.5,29.94,West,266,5.0,17.0,33,0.00,,,0.00,Weather View 32 v70,2013-05-11 23:24:00,
2013-05-11 16:29:00,85.3,50.2,29.94,WSW,242,3.0,17.0,30,0.00,,,0.00,Weather View 32 v70,2013-05-11 23:29:00,
2013-05-11 16:34:00,85.7,50.6,29.94,NW,316,5.0,17.0,30,0.00,,,0.00,Weather View 32 v70,2013-05-11 23:34:00,
2013-05-11 16:39:00,85.3,51.1,29.94,West,276,7.0,17.0,31,0.00,,,0.00,Weather View 32 v70,2013-05-11 23:39:00,
2013-05-11 16:44:00,85.3,51.1,29.94,West,281,6.0,17.0,31,0.00,,,0.00,Weather View 32 v70,2013-05-11 23:44:00,
2013-05-11 16:49:00,85.7,51.5,29.94,WNW,288,8.0,17.0,31,0.00,,,0.00,Weather View 32 v70,2013-05-11 23:49:00,
2013-05-11 16:54:00,86.3,50.2,29.94,WNW,300,7.0,17.0,29,0.00,,,0.00,Weather View 32 v70,2013-05-11 23:54:00,
2013-05-11 16:59:00,87.2,51.0,29.94,WNW,291,5.0,17.0,29,0.00,,,0.00,Weather View 32 v70,2013-05-11 23:59:00,
2013-05-11 17:04:00,87.0,49.8,29.94,WSW,244,9.0,17.0,28,0.00,,,0.00,Weather View 32 v70,2013-05-12 00:04:00,
2013-05-11 17:09:00,87.2,50.0,29.94,West,277,8.0,17.0,28,0.00,,,0.00,Weather View 32 v70,2013-05-12 00:09:00,
2013-05-11 17:14:00,87.2,49.0,29.94,West,281,7.0,17.0,27,0.00,,,0.00,Weather View 32 v70,2013-05-12 00:14:00,
2013-05-11 17:19:00,86.7,49.6,29.93,WNW,287,4.0,17.0,28,0.00,,,0.00,Weather View 32 v70,2013-05-12 00:19:00,
2013-05-11 17:24:00,86.3,49.2,29.93,WNW,286,5.0,17.0,28,0.00,,,0.00,Weather View 32 v70,2013-05-12 00:24:00,
2013-05-11 17:29:00,86.5,49.4,29.93,WNW,298,4.0,17.0,28,0.00,,,0.00,Weather View 32 v70,2013-05-12 00:29:00,
2013-05-11 17:34:00,86.3,49.2,29.93,West,280,5.0,17.0,28,0.00,,,0.00,Weather View 32 v70,2013-05-12 00:34:00,
2013-05-11 17:39:00,86.3,48.3,29.93,WNW,285,1.0,17.0,27,0.00,,,0.00,Weather View 32 v70,2013-05-12 00:39:00,
2013-05-11 17:44:00,85.7,48.7,29.93,West,279,4.0,17.0,28,0.00,,,0.00,Weather View 32 v70,2013-05-12 00:44:00,
2013-05-11 17:49:00,85.1,49.2,29.93,NW,323,6.0,17.0,29,0.00,,,0.00,Weather View 32 v70,2013-05-12 00:49:00,
2013-05-11 17:54:00,84.7,48.8,29.92,NW,317,5.0,17.0,29,0.00,,,0.00,Weather View 32 v70,2013-05-12 00:54:00,
2013-05-11 17:59:00,84.3,48.5,29.92,WNW,294,7.0,15.0,29,0.00,,,0.00,Weather View 32 v70,2013-05-12 00:59:00,
2013-05-11 18:04:00,84.1,48.3,29.92,WNW,302,8.0,15.0,29,0.00,,,0.00,Weather View 32 v70,2013-05-12 01:04:00,
2013-05-11 18:09:00,84.0,47.3,29.92,WNW,285,12.0,15.0,28,0.00,,,0.00,Weather View 32 v70,2013-05-12 01:09:00,
2013-05-11 18:14:00,84.0,47.3,29.92,NNW,332,13.0,15.0,28,0.00,,,0.00,Weather View 32 v70,2013-05-12 01:14:00,
2013-05-11 18:19:00,83.8,48.1,29.92,West,279,4.0,15.0,29,0.00,,,0.00,Weather View 32 v70,2013-05-12 01:19:00,
2013-05-11 18:24:00,83.8,46.1,29.92,WNW,299,8.0,17.0,27,0.00,,,0.00,Weather View 32 v70,2013-05-12 01:24:00,
2013-05-11 18:29:00,83.6,46.9,29.91,NW,313,10.0,17.0,28,0.00,,,0.00,Weather View 32 v70,2013-05-12 01:29:00,
2013-05-11 18:34:00,83.8,47.1,29.91,NW,318,6.0,17.0,28,0.00,,,0.00,Weather View 32 v70,2013-05-12 01:34:00,
2013-05-11 18:39:00,83.4,45.8,29.91,NW,323,9.0,17.0,27,0.00,,,0.00,Weather View 32 v70,2013-05-12 01:39:00,
2013-05-11 18:44:00,82.8,46.3,29.91,West,277,12.0,19.0,28,0.00,,,0.00,Weather View 32 v70,2013-05-12 01:44:00,
2013-05-11 18:49:00,82.2,46.7,29.91,West,274,9.0,19.0,29,0.00,,,0.00,Weather View 32 v70,2013-05-12 01:49:00,
2013-05-11 18:54:00,81.8,47.2,29.91,West,280,4.0,19.0,30,0.00,,,0.00,Weather View 32 v70,2013-05-12 01:54:00,
2013-05-11 18:59:00,81.4,47.8,29.91,West,271,11.0,19.0,31,0.00,,,0.00,Weather View 32 v70,2013-05-12 01:59:00,
2013-05-11 19:04:00,81.2,47.6,29.91,WNW,288,8.0,19.0,31,0.00,,,0.00,Weather View 32 v70,2013-05-12 02:04:00,
2013-05-11 19:09:00,81.1,47.5,29.91,WNW,296,4.0,19.0,31,0.00,,,0.00,Weather View 32 v70,2013-05-12 02:09:00,
2013-05-11 19:14:00,80.9,48.2,29.91,NW,307,13.0,19.0,32,0.00,,,0.00,Weather View 32 v70,2013-05-12 02:14:00,
2013-05-11 19:19:00,80.5,47.0,29.91,WNW,298,5.0,19.0,31,0.00,,,0.00,Weather View 32 v70,2013-05-12 02:19:00,
2013-05-11 19:24:00,80.3,46.8,29.91,WNW,288,5.0,19.0,31,0.00,,,0.00,Weather View 32 v70,2013-05-12 02:24:00,
2013-05-11 19:29:00,80.3,46.8,29.92,WNW,298,4.0,19.0,31,0.00,,,0.00,Weather View 32 v70,2013-05-12 02:29:00,
2013-05-11 19:34:00,80.1,45.8,29.92,West,273,3.0,19.0,30,0.00,,,0.00,Weather View 32 v70,2013-05-12 02:34:00,
2013-05-11 19:39:00,80.1,46.6,29.92,West,281,7.0,19.0,31,0.00,,,0.00,Weather View 32 v70,2013-05-12 02:39:00,
2013-05-11 19:44:00,80.1,46.6,29.92,WNW,282,10.0,19.0,31,0.00,,,0.00,Weather View 32 v70,2013-05-12 02:44:00,
2013-05-11 19:49:00,79.9,47.3,29.92,West,263,4.0,19.0,32,0.00,,,0.00,Weather View 32 v70,2013-05-12 02:49:00,
2013-05-11 19:54:00,79.8,46.4,29.92,NW,307,8.0,19.0,31,0.00,,,0.00,Weather View 32 v70,2013-05-12 02:54:00,
2013-05-11 19:59:00,79.6,47.1,29.92,WSW,257,12.0,19.0,32,0.00,,,0.00,Weather View 32 v70,2013-05-12 02:59:00,
2013-05-11 20:04:00,79.4,46.9,29.92,West,279,2.0,19.0,32,0.00,,,0.00,Weather View 32 v70,2013-05-12 03:04:00,
2013-05-11 20:09:00,79.2,47.5,29.92,WNW,284,4.0,19.0,33,0.00,,,0.00,Weather View 32 v70,2013-05-12 03:09:00,
2013-05-11 20:14:00,79.4,47.7,29.93,WNW,284,3.0,19.0,33,0.00,,,0.00,Weather View 32 v70,2013-05-12 03:14:00,
2013-05-11 20:19:00,79.2,47.5,29.93,WNW,298,4.0,19.0,33,0.00,,,0.00,Weather View 32 v70,2013-05-12 03:19:00,
2013-05-11 20:24:00,79.2,48.3,29.93,WNW,301,6.0,19.0,34,0.00,,,0.00,Weather View 32 v70,2013-05-12 03:24:00,
2013-05-11 20:29:00,79.0,48.9,29.93,WNW,284,12.0,19.0,35,0.00,,,0.00,Weather View 32 v70,2013-05-12 03:29:00,
2013-05-11 20:34:00,78.8,49.5,29.93,NW,320,10.0,18.0,36,0.00,,,0.00,Weather View 32 v70,2013-05-12 03:34:00,
2013-05-11 20:39:00,78.6,50.1,29.94,WNW,294,5.0,18.0,37,0.00,,,0.00,Weather View 32 v70,2013-05-12 03:39:00,
2013-05-11 20:44:00,78.5,50.7,29.94,WNW,287,4.0,18.0,38,0.00,,,0.00,Weather View 32 v70,2013-05-12 03:44:00,
2013-05-11 20:49:00,78.5,51.4,29.94,West,277,7.0,18.0,39,0.00,,,0.00,Weather View 32 v70,2013-05-12 03:49:00,
2013-05-11 20:54:00,78.5,51.4,29.94,WNW,292,4.0,18.0,39,0.00,,,0.00,Weather View 32 v70,2013-05-12 03:54:00,
2013-05-11 20:59:00,78.5,51.4,29.94,West,268,7.0,18.0,39,0.00,,,0.00,Weather View 32 v70,2013-05-12 03:59:00,
2013-05-11 21:01:00,78.5,51.4,29.95,West,271,6.0,18.0,39,0.00,,,0.00,Weather View 32 v70,2013-05-12 04:01:00,
2013-05-11 21:06:00,78.3,51.2,29.95,WNW,299,4.0,18.0,39,0.00,,,0.00,Weather View 32 v70,2013-05-12 04:06:00,
2013-05-11 21:11:00,78.1,51.7,29.95,West,277,4.0,18.0,40,0.00,,,0.00,Weather View 32 v70,2013-05-12 04:11:00,
2013-05-11 21:16:00,77.9,51.6,29.95,WNW,301,1.0,18.0,40,0.00,,,0.00,Weather View 32 v70,2013-05-12 04:16:00,
2013-05-11 21:21:00,77.7,51.4,29.95,WNW,284,0.0,18.0,40,0.00,,,0.00,Weather View 32 v70,2013-05-12 04:21:00,
2013-05-11 21:26:00,77.7,52.0,29.95,WNW,284,2.0,18.0,41,0.00,,,0.00,Weather View 32 v70,2013-05-12 04:26:00,
2013-05-11 21:31:00,77.6,52.0,29.95,West,265,3.0,17.0,41,0.00,,,0.00,Weather View 32 v70,2013-05-12 04:31:00,
2013-05-11 21:36:00,77.6,52.0,29.96,West,269,0.0,17.0,41,0.00,,,0.00,Weather View 32 v70,2013-05-12 04:36:00,
2013-05-11 21:41:00,77.4,51.8,29.96,West,269,0.0,17.0,41,0.00,,,0.00,Weather View 32 v70,2013-05-12 04:41:00,
2013-05-11 21:46:00,77.2,52.3,29.96,West,269,0.0,17.0,42,0.00,,,0.00,Weather View 32 v70,2013-05-12 04:46:00,
2013-05-11 21:51:00,76.8,51.9,29.96,West,269,0.0,13.0,42,0.00,,,0.00,Weather View 32 v70,2013-05-12 04:51:00,
2013-05-11 21:56:00,76.5,52.3,29.96,West,269,0.0,13.0,43,0.00,,,0.00,Weather View 32 v70,2013-05-12 04:56:00,
2013-05-11 22:01:00,76.1,51.9,29.96,West,270,1.0,13.0,43,0.00,,,0.00,Weather View 32 v70,2013-05-12 05:01:00,
2013-05-11 22:06:00,76.0,52.4,29.96,West,275,1.0,8.0,44,0.00,,,0.00,Weather View 32 v70,2013-05-12 05:06:00,
2013-05-11 22:11:00,75.8,52.9,29.96,West,275,0.0,6.0,45,0.00,,,0.00,Weather View 32 v70,2013-05-12 05:11:00,
2013-05-11 22:16:00,75.4,52.5,29.96,West,275,0.0,6.0,45,0.00,,,0.00,Weather View 32 v70,2013-05-12 05:16:00,
2013-05-11 22:21:00,74.9,52.7,29.96,West,279,4.0,6.0,46,0.00,,,0.00,Weather View 32 v70,2013-05-12 05:21:00,
2013-05-11 22:26:00,74.7,52.5,29.96,West,279,2.0,6.0,46,0.00,,,0.00,Weather View 32 v70,2013-05-12 05:26:00,
2013-05-11 22:31:00,74.7,53.1,29.96,WNW,290,2.0,6.0,47,0.00,,,0.00,Weather View 32 v70,2013-05-12 05:31:00,
2013-05-11 22:36:00,74.7,52.5,29.96,WNW,286,4.0,11.0,46,0.00,,,0.00,Weather View 32 v70,2013-05-12 05:36:00,
2013-05-11 22:41:00,74.9,52.7,29.96,WNW,287,2.0,11.0,46,0.00,,,0.00,Weather View 32 v70,2013-05-12 05:41:00,
2013-05-11 22:46:00,74.9,52.7,29.96,West,259,9.0,11.0,46,0.00,,,0.00,Weather View 32 v70,2013-05-12 05:46:00,
2013-05-11 22:51:00,75.1,52.2,29.96,West,267,4.0,11.0,45,0.00,,,0.00,Weather View 32 v70,2013-05-12 05:51:00,
2013-05-11 22:56:00,75.3,52.4,29.96,NW,309,1.0,11.0,45,0.00,,,0.00,Weather View 32 v70,2013-05-12 05:56:00,
2013-05-11 23:01:00,75.1,52.2,29.96,West,269,7.0,11.0,45,0.00,,,0.00,Weather View 32 v70,2013-05-12 06:01:00,
2013-05-11 23:06:00,75.1,52.8,29.96,WNW,290,2.0,11.0,46,0.00,,,0.00,Weather View 32 v70,2013-05-12 06:06:00,
2013-05-11 23:11:00,74.9,52.7,29.96,West,270,2.0,11.0,46,0.00,,,0.00,Weather View 32 v70,2013-05-12 06:11:00,
2013-05-11 23:16:00,74.7,53.1,29.96,WNW,283,4.0,11.0,47,0.00,,,0.00,Weather View 32 v70,2013-05-12 06:16:00,
2013-05-11 23:21:00,74.6,53.0,29.96,WNW,294,3.0,11.0,47,0.00,,,0.00,Weather View 32 v70,2013-05-12 06:21:00,
2013-05-11 23:26:00,74.0,53.6,29.97,WNW,293,2.0,11.0,49,0.00,,,0.00,Weather View 32 v70,2013-05-12 06:26:00,
2013-05-11 23:31:00,73.2,53.9,29.97,WNW,294,2.0,11.0,51,0.00,,,0.00,Weather View 32 v70,2013-05-12 06:31:00,
2013-05-11 23:36:00,72.7,54.0,29.97,WNW,294,3.0,11.0,52,0.00,,,0.00,Weather View 32 v70,2013-05-12 06:36:00,
2013-05-11 23:41:00,72.0,54.4,29.97,WNW,290,2.0,11.0,54,0.00,,,0.00,Weather View 32 v70,2013-05-12 06:41:00,
2013-05-11 23:46:00,71.5,54.4,29.97,WNW,302,1.0,11.0,55,0.00,,,0.00,Weather View 32 v70,2013-05-12 06:46:00,
2013-05-11 23:51:00,70.8,54.3,29.98,WNW,287,4.0,11.0,56,0.00,,,0.00,Weather View 32 v70,2013-05-12 06:51:00,
2013-05-11 23:56:00,70.4,54.4,29.98,WNW,296,4.0,11.0,57,0.00,,,0.00,Weather View 32 v70,2013-05-12 06:56:00,